Regional Weather Roundup
Issued by NWS

Home | Current Version | Previous Version | Text Only | Print | Product List | Glossary Off
Versions: 1 2 3 4 5 6 7 8 9 10 11 12 13 14 15 16 17 18 19 20 21 22 23 24 25 26 27 28 29 30 31 32 33 34 35 36 37 38 39 40 41 42 43 44 45 46 47 48 49 50

000
ASUS43 KIND 232109
RWRIN

WEATHER ROUNDUP FOR INDIANA
NATIONAL WEATHER SERVICE INDIANAPOLIS IN
500 PM EDT TUE SEP 23 2014

NOTE: "FAIR" INDICATES FEW OR NO CLOUDS BELOW 12,000 FEET WITH NO
SIGNIFICANT WEATHER AND/OR OBSTRUCTIONS TO VISIBILITY.

* - STATION DOES NOT REPORT WEATHER SUCH AS PRECIPITATION OR FOG.

+ - STATION NOT QUALITY CONTROLLED BY THE NATIONAL WEATHER SERVICE.
    USE DATA WITH CAUTION...ESPECIALLY DEWPOINT AND RELATIVE
    HUMIDITY OBSERVATIONS.

INZ001>003-010>013-019-020-232200-
NORTHWEST INDIANA

CITY           SKY/WX    TMP DP  RH WIND       PRES   REMARKS
GARY /AIRPORT/ MOSUNNY   72  50  46 MISG      30.30F
KNOX *+        SUNNY     72  47  41 CALM      30.28F
LA PORTE +     SUNNY     71  47  43 NE5       30.30F
MICHIGAN CITY+ SUNNY     68  46  45 N7        30.31F
MONTICELLO +   SUNNY     72  49  44 E5        30.28F
RENSSELAER +   SUNNY     72  46  40 N5        30.29F
VALPARAISO     SUNNY     71  47  42 CALM      30.29F

$$

LMZ046-743>745-232200-
SOUTHERN LAKE MICHIGAN

STATION/POSITION TIME  TEMP WIND        PRES
                       AIR  DIR/SP/G
                 (UTC) (F)  (DEG/KT/KT) (MB)

$$

INZ004-005-014>016-021>024-232200-
NORTH CENTRAL INDIANA

CITY           SKY/WX    TMP DP  RH WIND       PRES   REMARKS
ELKHART        SUNNY     72  46  40 CALM      30.31F
GOSHEN         SUNNY     71  50  47 SW3       30.30F
LOGANSPORT +   SUNNY     70  46  43 N5        30.31F
PERU/GRISSOM   SUNNY     71  51  49 N5        30.30F
ROCHESTER +    SUNNY     73  50  43 CALM      30.30F
SOUTH BEND     SUNNY     72  47  40 CALM      30.31F
WARSAW +       SUNNY     70  50  49 E3        30.30F

$$

INZ006>009-017-018-025>027-232200-
NORTHEAST INDIANA

CITY           SKY/WX    TMP DP  RH WIND       PRES   REMARKS
ANGOLA *+      SUNNY     73  50  43 CALM      30.30F
AUBURN +       SUNNY     72  45  37 CALM      30.31F
FORT WAYNE     SUNNY     70  48  45 CALM      30.32F
HUNTINGTON +   SUNNY     69  50  49 N5        30.31F

$$

INZ028-029-035-036-043>045-051>053-232200-
WEST CENTRAL INDIANA

CITY           SKY/WX    TMP DP  RH WIND       PRES   REMARKS
GREENCASTLE +  SUNNY     70  46  43 E8        30.29F
LAFAYETTE      SUNNY     70  49  47 E3        30.28F
TERRE HAUTE    SUNNY     72  48  42 E8        30.28F

$$

INZ030>032-037>040-046>048-054>057-064-065-232200-
CENTRAL INDIANA

CITY           SKY/WX    TMP DP  RH WIND       PRES   REMARKS
CP ATTERBURY + SUNNY     72  43  35 CALM      30.29F
COLUMBUS       SUNNY     72  41  33 CALM      30.29F
FRANKFORT +    SUNNY     73  46  38 NE5       30.31F
GREENWOOD *+   SUNNY     72  48  43 N6        30.29F
INDIANAPOLIS   SUNNY     71  46  40 VRB7      30.29F
-EAGLE CREEK   SUNNY     71  46  40 VRB5      30.29F
KOKOMO *+      SUNNY     72  48  43 E7        30.30F
MARION +       SUNNY     70  45  40 NE6       30.31F
MT COMFORT *+  SUNNY     72  28  20 CALM      30.30F
SHELBYVILLE    SUNNY     74  44  34 SE5       30.28F
ZIONSVILLE +   SUNNY     71  46  40 E5        30.31S

$$

INZ033-034-041-042-049-050-058-059-232200-
EAST CENTRAL INDIANA

CITY           SKY/WX    TMP DP  RH WIND       PRES   REMARKS
MUNCIE         SUNNY     71  42  35 CALM      30.30F

$$

INZ060-061-067>069-081>083-085>088-232200-
SOUTHWEST INDIANA

CITY           SKY/WX    TMP DP  RH WIND       PRES   REMARKS
EVANSVILLE     SUNNY     74  45  35 E10       30.25F
WASHINGTON +   SUNNY     73  48  41 NE6       30.26F

$$

INZ062-063-066-070>080-084-089>092-232200-
SOUTH CENTRAL AND SOUTHEAST INDIANA

CITY           SKY/WX    TMP DP  RH WIND       PRES   REMARKS
BLOOMINGTON    SUNNY     71  47  42 NE9       30.29F
NORTH VERNON + SUNNY     73  37  27 SE3       30.29F

$$




USA.gov is the U.S. government's official web portal to all federal, state and local government web resources and services.